SCD 1 1 22490U 93009B 25350.43840100 .00000503 00000+0 87019-4 0 9999 2 22490 24.9690 255.8555 0041957 4.2470 157.3009 14.46001751734634 TECHSAT 1B (GO-32) 1 25397U 98043D 25350.92150115 .00000082 00000+0 55558-4 0 9990 2 25397 98.9923 334.2302 0001939 50.6560 309.4790 14.24378325425382 SCD 2 1 25504U 98060A 25350.68330654 .00000416 00000+0 65363-4 0 9996 2 25504 24.9940 117.5789 0016807 355.5058 27.3443 14.45425548433899 DLR-TUBSAT 1 25757U 99029B 25350.93702647 .00000116 00000+0 40430-4 0 9990 2 25757 98.6565 335.5804 0014167 179.8219 180.2983 14.52359362406798 TERRA 1 25994U 99068A 25350.99188867 .00000442 00000+0 99486-4 0 9991 2 25994 97.9744 42.5202 0003586 86.1451 34.2468 14.60906801383009 MAROC-TUBSAT 1 27004U 01056D 25350.98207251 -.00000019 00000+0 30880-4 0 9997 2 27004 99.7912 159.5013 0019130 248.8247 226.7307 13.70253151201238 AQUA 1 27424U 02022A 25351.00450321 .00000925 00000+0 19503-3 0 9992 2 27424 98.4041 311.9529 0001248 113.7180 322.1616 14.61819266256652 IRS-P6 (RESOURCESAT-1) 1 28051U 03046A 25351.03433223 .00000072 00000+0 37713-4 0 9998 2 28051 98.2181 31.2427 0064361 167.8212 251.9179 14.36076467154382 SHIYAN-1 (SY-1) 1 28220U 04012A 25350.72232289 .00011322 00000+0 41396-3 0 9995 2 28220 97.8939 52.4961 0005403 309.8005 50.2757 15.28250675183172 AURA 1 28376U 04026A 25350.96763673 .00000931 00000+0 19980-3 0 9992 2 28376 98.3188 301.2139 0001307 93.3569 266.7781 14.60956767139607 IRS-P5 (CARTOSAT-1) 1 28649U 05017A 25350.97873649 .00001472 00000+0 15643-3 0 9995 2 28649 97.5490 17.2042 0000956 44.6475 315.4821 14.90419494116671 SINAH 1 1 28893U 05043D 25350.98814059 .00000380 00000+0 81876-4 0 9995 2 28893 98.2606 119.5568 0015523 124.5117 235.7553 14.63967195 73860 EROS B 1 29079U 06014A 25350.95752649 .00143424 00000+0 11972-2 0 9999 2 29079 97.3463 107.7359 0003033 310.5784 49.5213 15.69605363 91468 RESURS-DK 1 1 29228U 06021A 25350.99775288 .00002280 00000+0 13797-3 0 9993 2 29228 69.9336 90.8344 0006933 255.7353 104.3043 15.12185708 75027 ARIRANG-2 (KOMPSAT-2) 1 29268U 06031A 25351.03609457 .00000333 00000+0 71278-4 0 9994 2 29268 97.8259 179.2991 0013336 294.5205 231.8383 14.64497981 34817 LAPAN-TUBSAT 1 29709U 07001A 25350.95604075 .00001064 00000+0 12916-3 0 9998 2 29709 98.1257 341.1996 0013575 61.7588 298.4995 14.85680279 24091 HAIYANG-1B 1 31113U 07010A 25350.92960780 .00000114 00000+0 59149-4 0 9990 2 31113 98.3317 335.0347 0014081 26.1872 334.0022 14.30966518974565 COSMO-SKYMED 1 1 31598U 07023A 25351.00262899 .00003650 00000+0 33237-3 0 9994 2 31598 97.8834 176.4294 0001525 87.9521 272.1874 14.95799043 2548 TERRASAR-X 1 31698U 07026A 25350.53902751 .00001400 00000+0 69854-4 0 9999 2 31698 97.4453 355.8641 0001810 90.2212 269.9230 15.19148195 25494 WORLDVIEW-1 (WV-1) 1 32060U 07041A 25350.85304112 .00006820 00000+0 27813-3 0 9991 2 32060 97.3838 108.2762 0000868 114.2837 245.8491 15.24759067 15101 YAOGAN-3 1 32289U 07055A 25350.98046972 .00002202 00000+0 23486-3 0 9992 2 32289 97.8370 17.5679 0001367 74.6715 285.4653 14.89881741978729 COSMO-SKYMED 2 1 32376U 07059A 25351.01770186 .00000535 00000+0 73792-4 0 9992 2 32376 97.8804 172.2771 0001370 83.2279 276.9090 14.82148015975017 RADARSAT-2 1 32382U 07061A 25350.97362203 .00000143 00000+0 72292-4 0 9992 2 32382 98.5798 355.5026 0001109 84.2711 275.8598 14.29983434939918 CARTOSAT-2A 1 32783U 08021A 25350.93307632 .00000782 00000+0 11277-3 0 9999 2 32783 97.7932 40.6258 0011589 351.0843 9.0161 14.78945934951865 HUANJING 1A (HJ-1A) 1 33320U 08041A 25351.01318241 .00001524 00000+0 19128-3 0 9995 2 33320 97.6538 339.1336 0019890 21.0207 339.1820 14.83410296931397 HUANJING 1B (HJ-1B) 1 33321U 08041B 25350.97345128 .00000809 00000+0 10502-3 0 9996 2 33321 97.6400 342.7814 0038148 62.2771 298.2305 14.82832828931400 GEOEYE 1 1 33331U 08042A 25350.95981724 .00000647 00000+0 13054-3 0 9999 2 33331 98.1250 62.1877 0002757 267.1549 92.9338 14.64706329923477 THEOS 1 33396U 08049A 25350.97953719 -.00000044 00000+0 -75297-6 0 9995 2 33396 98.5869 48.9442 0001156 94.6607 265.4702 14.20097194892100 COSMO-SKYMED 3 1 33412U 08054A 25350.98933933 .00004008 00000+0 28320-3 0 9991 2 33412 97.8473 201.4522 0016438 158.3193 201.8732 15.05399061929519 YAOGAN-4 1 33446U 08061A 25350.78784155 .00001297 00000+0 16727-3 0 9999 2 33446 97.9187 280.8474 0013330 309.2264 50.7765 14.82694666918631 GOSAT (IBUKI) 1 33492U 09002A 25350.88791517 .00000775 00000+0 14511-3 0 9996 2 33492 98.0772 99.4336 0000958 97.7254 262.4059 14.67534009904725 DEIMOS-1 1 35681U 09041A 25350.98814358 .00000695 00000+0 11051-3 0 9998 2 35681 97.7142 151.3929 0002646 71.8656 288.2842 14.74960233880027 DUBAISAT-1 1 35682U 09041B 25350.93351953 .00001164 00000+0 18207-3 0 9993 2 35682 97.9794 121.5516 0009378 299.6318 60.3957 14.74615826878239 OCEANSAT-2 1 35931U 09051A 25350.97981742 -.00000137 00000+0 -67762-4 0 9992 2 35931 98.2219 351.1504 0016097 33.9501 326.2692 13.99623785853848 WORLDVIEW-2 (WV-2) 1 35946U 09055A 25350.98325668 .00000154 00000+0 65815-4 0 9996 2 35946 98.4785 62.0095 0005052 60.3232 299.8457 14.37725844849460 SMOS 1 36036U 09059A 25350.97046077 .00000343 00000+0 12349-3 0 9997 2 36036 98.4380 175.9562 0001099 82.8874 277.2440 14.39744975847236 YAOGAN-7 1 36110U 09069A 25350.96238504 .00000567 00000+0 86173-4 0 9993 2 36110 98.0297 232.7042 0023333 266.8851 92.9689 14.77738719862719 TANDEM-X 1 36605U 10030A 25350.53902854 .00001138 00000+0 57397-4 0 9992 2 36605 97.4444 355.8639 0001863 80.5991 279.5455 15.19147751858912 CARTOSAT-2B 1 36795U 10035A 25350.97328953 .00000774 00000+0 11215-3 0 9990 2 36795 97.7854 39.8664 0012949 63.9528 296.3015 14.78731176832921 YAOGAN-10 1 36834U 10038A 25351.02416563 .00001419 00000+0 17427-3 0 9997 2 36834 97.9142 10.8130 0001330 81.1670 0.6718 14.84623084830172 COSMO-SKYMED 4 1 37216U 10060A 25350.96286025 .00000561 00000+0 76981-4 0 9995 2 37216 97.8804 172.2221 0001412 80.4090 279.7283 14.82151228817573 RESOURCESAT-2 1 37387U 11015A 25350.93824636 .00000126 00000+0 77569-4 0 9998 2 37387 98.7874 54.4712 0006244 31.5047 328.6503 14.21598972760280 HAIYANG-2A 1 37781U 11043A 25350.98610550 -.00000078 00000+0 -33449-4 0 9997 2 37781 99.3378 351.8555 0001637 78.1269 282.0066 13.78835540721579 RASAT 1 37791U 11044D 25351.01201277 .00000480 00000+0 92187-4 0 9995 2 37791 98.0647 80.2061 0021735 52.0687 121.0341 14.67915881766456 SRMSAT 1 37841U 11058D 25350.62090652 .00000413 00000+0 80527-4 0 9996 2 37841 19.9718 84.4606 0011857 356.2023 42.8672 14.11512789731998 PLEIADES 1A 1 38012U 11076F 25350.99635395 .00000264 00000+0 66615-4 0 9992 2 38012 98.1822 63.6992 0001207 71.4407 31.0677 14.58565283745438 ZIYUAN 1-02C (ZY 1-02C) 1 38038U 11079A 25351.00931892 .00000377 00000+0 13886-3 0 9993 2 38038 98.4333 56.9444 0007318 126.9678 356.0445 14.38016908733026 ARIRANG-3 (KOMPSAT-3) 1 38338U 12025B 25350.98720212 .00000479 00000+0 10583-3 0 9990 2 38338 98.3327 305.6086 0005085 324.2697 35.8163 14.61718420724720 EXACTVIEW-1 (ADS-1B) 1 38709U 12039C 25350.88655819 .00000121 00000+0 71634-4 0 9995 2 38709 98.9638 99.3636 0010461 342.0630 18.0177 14.24909684696741 SPOT 6 1 38755U 12047A 25350.99129480 .00000273 00000+0 68483-4 0 9993 2 38755 98.1572 55.6979 0001183 98.8261 261.3072 14.58607058706491 PLEIADES 1B 1 39019U 12068A 25351.01077028 .00000338 00000+0 82519-4 0 9992 2 39019 98.1793 63.5951 0001189 83.2587 276.8747 14.58557005694293 GOKTURK 2 1 39030U 12073A 25350.98963382 .00000287 00000+0 49277-4 0 9990 2 39030 97.6894 192.4339 0001117 106.6141 253.5192 14.75296465697648 LANDSAT 8 1 39084U 13008A 25350.98254890 .00000375 00000+0 93160-4 0 9993 2 39084 98.2069 58.9934 0001061 90.9881 269.1439 14.57118252671364 SARAL 1 39086U 13009A 25350.98754601 .00000110 00000+0 56346-4 0 9993 2 39086 98.5502 174.8625 0002932 100.6299 259.5215 14.32758523669519 GAOFEN-1 1 39150U 13018A 25350.97137976 .00000814 00000+0 12377-3 0 9990 2 39150 97.9326 61.5559 0018402 129.9225 230.3606 14.76542454681357 VNREDSAT 1 1 39160U 13021B 25350.99300922 .00000520 00000+0 10573-3 0 9990 2 39160 97.9375 46.1191 0001239 78.4375 281.6967 14.64929313673616 ARIRANG-5 (KOMPSAT-5) 1 39227U 13042A 25350.99973848 .00002377 00000+0 17401-3 0 9999 2 39227 97.6146 175.2422 0003479 43.3908 316.7592 15.04524495676462 SKYSAT-A 1 39418U 13066C 25350.71252317 .00002720 00000+0 16299-3 0 9994 2 39418 97.4108 40.8006 0020972 222.1384 137.8235 15.11632586660904 DUBAISAT-2 1 39419U 13066D 25350.96022602 .00002881 00000+0 18902-3 0 9995 2 39419 97.4445 341.2376 0010095 306.0683 53.9610 15.08399021658908 GPM-CORE 1 39574U 14009C 25350.96431921 .00006551 00000+0 14558-3 0 9994 2 39574 64.9727 198.5345 0009587 246.7119 113.3013 15.44530341669664 SENTINEL-1A 1 39634U 14016A 25350.96757844 .00000160 00000+0 43734-4 0 9993 2 39634 98.1804 356.1471 0001238 82.4430 277.6911 14.59200866623442 KAZEOSAT 1 1 39731U 14024A 25350.95329251 .00000226 00000+0 81731-4 0 9998 2 39731 98.3433 62.7661 0001142 96.0188 264.1132 14.42065277612290 ALOS-2 1 39766U 14029A 25351.00392019 .00000885 00000+0 12538-3 0 9999 2 39766 97.9224 85.7890 0001349 95.6676 264.4689 14.79469754624646 KAZEOSAT 2 1 40010U 14033A 25351.00438591 .00001086 00000+0 13257-3 0 9997 2 40010 97.5506 195.0984 0007957 191.5235 168.5800 14.85177011621911 HODOYOSHI-4 1 40011U 14033B 25350.98134187 .00001196 00000+0 13702-3 0 9995 2 40011 97.5413 179.6559 0023379 186.2241 173.8689 14.87498226621717 DEIMOS-2 1 40013U 14033D 25350.93648725 .00001897 00000+0 18777-3 0 9995 2 40013 97.6064 226.5977 0001074 107.9917 252.1420 14.92990155610521 HODOYOSHI-3 1 40015U 14033F 25350.93550319 .00001550 00000+0 18707-3 0 9997 2 40015 97.6202 156.5881 0032054 233.5945 126.2313 14.84821460620573 SPOT 7 1 40053U 14034A 25350.98889137 .00000477 00000+0 10711-3 0 9992 2 40053 98.0906 52.9666 0001551 84.8440 275.2938 14.60739593610538 SKYSAT-B 1 40072U 14037D 25350.79054927 .00001605 00000+0 18439-3 0 9995 2 40072 98.3612 294.7104 0006447 138.4227 221.7479 14.87342538618843 WORLDVIEW-3 (WV-3) 1 40115U 14048A 25350.95067920 .00000991 00000+0 12090-3 0 9994 2 40115 97.8613 63.1780 0005108 171.1729 188.9577 14.85522182614862 GAOFEN-2 1 40118U 14049A 25350.99889755 .00000803 00000+0 11150-3 0 9998 2 40118 98.0385 50.1749 0008676 101.0746 259.1442 14.80617380612274 YAOGAN-21 1 40143U 14053A 25351.01660525 .00003756 00000+0 15900-3 0 9994 2 40143 97.1754 34.1438 0009434 27.6414 332.5324 15.23721081627191 YAOGAN-22 1 40275U 14063A 25350.96689740 -.00000023 00000+0 61521-4 0 9990 2 40275 100.7423 134.4461 0005983 237.8836 122.1695 13.15522819535851 ASNARO 1 40298U 14070A 25351.01953337 .00008286 00000+0 39223-3 0 9997 2 40298 97.3653 66.8611 0005584 110.7499 249.4335 15.19585159616348 YAOGAN-24 1 40310U 14072A 25350.94695727 .00001125 00000+0 17011-3 0 9997 2 40310 98.1215 122.0619 0014932 125.2329 235.0280 14.76187822596837 CBERS 4 1 40336U 14079A 25350.97683998 .00000124 00000+0 57796-4 0 9995 2 40336 98.3309 48.8490 0001734 107.5336 252.6040 14.35519317577819 YAOGAN-26 1 40362U 14088A 25350.95958380 .00015515 00000+0 39742-3 0 9992 2 40362 97.0635 351.4837 0005634 17.0516 343.0919 15.39450041609596 SMAP 1 40376U 15003A 25350.99456866 .00000506 00000+0 10712-3 0 9991 2 40376 98.1289 355.6571 0001211 90.9220 269.2121 14.63350573580977 KOMPSAT-3A 1 40536U 15014A 25350.95757295 .00016185 00000+0 35554-3 0 9998 2 40536 97.6784 325.5375 0005214 117.4375 242.7403 15.44099839593608 SENTINEL-2A 1 40697U 15028A 25350.97692074 .00000084 00000+0 48671-4 0 9992 2 40697 98.5690 63.4489 0001053 87.6631 272.4672 14.30814712547679 GAOFEN-8 1 40701U 15030A 25350.99705916 .00016982 00000+0 44501-3 0 9994 2 40701 97.6897 169.3446 0011806 123.5263 236.7111 15.38694024583369 CARBONITE 1 (CBNT-1) 1 40718U 15032D 25350.96773024 .00001497 00000+0 19122-3 0 9992 2 40718 97.6399 171.8251 0014625 167.3838 192.7745 14.82764561562332 YAOGAN-27 1 40878U 15040A 25350.95817028 .00000270 00000+0 82156-3 0 9995 2 40878 100.1007 340.3874 0007585 276.2894 83.7356 13.16060980493697 GAOFEN-9 01 1 40894U 15047A 25350.98352631 .00001014 00000+0 13199-3 0 9995 2 40894 97.6538 29.7557 0028060 20.7295 339.5051 14.82432836553191 YAOGAN-28 1 41026U 15064A 25350.97050523 .00006307 00000+0 25941-3 0 9994 2 41026 97.2803 128.6432 0012526 112.4829 247.7737 15.24424295562898 YAOGAN-29 1 41038U 15069A 25351.00319904 -.00000076 00000+0 -27320-5 0 9992 2 41038 98.0221 14.1890 0000232 203.1546 156.9657 14.82885953543623 KENT RIDGE 1 1 41167U 15077B 25350.18171551 .00003923 00000+0 13604-3 0 9996 2 41167 14.9782 185.6007 0008492 179.6251 180.4078 15.21665252553166 GAOFEN-4 1 41194U 15083A 25350.68775117 -.00000311 00000+0 00000+0 0 9997 2 41194 0.1803 81.6263 0002912 95.6325 261.5967 1.00274590 36691 JASON-3 1 41240U 16002A 25350.94438959 -.00000046 00000+0 64080-4 0 9998 2 41240 66.0395 148.9842 0007173 271.0461 88.9736 12.87626740463789 SENTINEL-3A 1 41335U 16011A 25350.94889991 .00000115 00000+0 65462-4 0 9990 2 41335 98.6311 55.9023 0000924 92.3007 267.8279 14.26732318512079 ZIYUAN 3-02 (ZY 3-02) 1 41556U 16033A 25350.99557021 .00005861 00000+0 26613-3 0 9997 2 41556 97.4045 65.0930 0010810 230.5871 129.4408 15.21118517530289 CARTOSAT-2C 1 41599U 16040A 25350.94614427 .00001093 00000+0 55222-4 0 9993 2 41599 97.4770 48.1536 0011445 50.4214 309.8030 15.19147403526047 SKYSAT-C1 1 41601U 16040C 25350.63830681 .00007625 00000+0 24400-3 0 9995 2 41601 96.9824 27.4326 0001920 3.0572 357.0683 15.32662734529877 LAPAN-A3 1 41603U 16040E 25351.00689854 .00003455 00000+0 11560-3 0 9993 2 41603 97.1424 348.4081 0009203 316.8453 43.2067 15.31587677526910 BIROS 1 41604U 16040F 25350.81684549 .00182143 14119-4 57589-3 0 9992 2 41604 97.0679 22.4180 0003806 138.0026 222.1541 15.91277947529374 GAOFEN-3 1 41727U 16049A 25350.96701867 .00000083 00000+0 38456-4 0 9990 2 41727 98.4041 356.4892 0001303 59.3245 300.8073 14.42214902492387 SKYSAT-C4 1 41771U 16058B 25350.82017311 .00012509 00000+0 29162-3 0 9997 2 41771 96.9372 15.8097 0001904 132.1599 227.9811 15.42367305517304 SKYSAT-C5 1 41772U 16058C 25350.72668191 .00008483 00000+0 26050-3 0 9994 2 41772 97.0759 34.3128 0003789 274.9560 85.1251 15.33949405515771 SKYSAT-C2 1 41773U 16058D 25350.97719296 .00009845 00000+0 27081-3 0 9993 2 41773 97.0359 15.3249 0003786 23.6804 336.4615 15.37367852517017 SKYSAT-C3 1 41774U 16058E 25350.66450035 .00015682 00000+0 33940-3 0 9990 2 41774 96.9298 24.2283 0001827 107.3636 252.7813 15.44537188517864 ALSAT 1B 1 41785U 16059C 25351.01997912 .00000682 00000+0 11593-3 0 9997 2 41785 97.7816 2.6256 0010780 91.1635 269.0808 14.72081532493773 PATHFINDER 1 1 41787U 16059E 25350.95078846 .00000727 00000+0 13619-3 0 9998 2 41787 97.8137 353.5290 0029956 68.4108 292.0284 14.67328757492988 SCATSAT 1 1 41790U 16059H 25350.71618238 .00001421 00000+0 19502-3 0 9990 2 41790 98.1461 47.4361 0056383 115.4342 245.2718 14.78950183 74615 GOKTURK 1A 1 41875U 16073A 25350.94911051 .00000345 00000+0 76838-4 0 9994 2 41875 98.1430 243.2582 0001265 79.7232 280.4112 14.62784617482189 RESOURCESAT-2A 1 41877U 16074A 25350.99096465 -.00000159 00000+0 -52170-4 0 9993 2 41877 98.7756 60.8221 0001236 234.3999 125.7063 14.21600165468414 CARTOSAT-2D 1 41948U 17008A 25350.98022792 .00003927 00000+0 18925-3 0 9994 2 41948 97.4387 48.4138 0004998 149.6291 210.5235 15.19299925489917 SENTINEL-2B 1 42063U 17013A 25350.96972454 .00000099 00000+0 54560-4 0 9999 2 42063 98.5714 63.3563 0001154 92.2504 267.8811 14.30817652458580 CARTOSAT-2E 1 42767U 17036C 25350.93083817 .00002273 00000+0 11114-3 0 9991 2 42767 97.4556 48.4631 0002159 216.4722 143.6366 15.19236406470479 FORMOSAT-5 1 42920U 17049A 25350.97957003 .00000181 00000+0 57103-4 0 9992 2 42920 98.2450 65.2144 0009884 287.3100 72.7013 14.50763083440251 SENTINEL-5P 1 42969U 17064A 25350.85502017 .00000059 00000+0 48930-4 0 9992 2 42969 98.7788 289.4027 0000998 89.5444 270.5847 14.19518567423695 SKYSAT-C11 1 42987U 17068A 25350.94713775 .00019223 00000+0 37405-3 0 9998 2 42987 97.4136 128.5430 0001185 104.0005 256.1377 15.47625729454967 SKYSAT-C10 1 42988U 17068B 25350.90956843 .00009479 00000+0 30770-3 0 9990 2 42988 97.4255 121.7718 0005441 92.0534 268.1330 15.32152738454439 SKYSAT-C9 1 42989U 17068C 25350.92632417 .00011033 00000+0 31486-3 0 9995 2 42989 97.4188 121.2131 0010611 74.3186 285.9228 15.36157343454726 SKYSAT-C8 1 42990U 17068D 25350.94015186 .00009663 00000+0 30540-3 0 9993 2 42990 97.4278 120.9584 0001300 327.9576 32.1587 15.33014294454354 SKYSAT-C7 1 42991U 17068E 25350.90272218 .00009346 00000+0 30082-3 0 9990 2 42991 97.4284 121.9585 0007414 44.0512 316.1319 15.32415541454417 SKYSAT-C6 1 42992U 17068F 25350.88377894 .00008880 00000+0 29366-3 0 9999 2 42992 97.4318 122.3747 0005098 71.1498 289.0296 15.31575575454393 CARTOSAT-2F 1 43111U 18004A 25350.96350932 .00004151 00000+0 19976-3 0 9990 2 43111 97.4321 48.5333 0001289 140.8495 219.2833 15.19318698439662 GAOFEN-1 02 1 43259U 18031A 25350.99445626 .00000702 00000+0 10841-3 0 9991 2 43259 98.0807 48.7856 0001973 201.2888 158.8240 14.76424156415811 GAOFEN-1 03 1 43260U 18031B 25350.97270955 .00000813 00000+0 12429-3 0 9999 2 43260 98.0794 48.6400 0001784 301.0839 59.0195 14.76445636415803 GAOFEN-1 04 1 43262U 18031D 25351.01609044 .00001038 00000+0 15663-3 0 9995 2 43262 98.0808 48.8535 0000906 59.3136 300.8163 14.76460596415804 SENTINEL-3B 1 43437U 18039A 25350.92211298 .00000124 00000+0 69204-4 0 9992 2 43437 98.6265 56.0475 0001627 97.5988 262.5377 14.26735597398133 GAOFEN-5 01 1 43461U 18043A 25350.89633795 .00000410 00000+0 94792-4 0 9998 2 43461 98.4330 313.9362 0000692 320.1182 39.9967 14.60414456405083 GAOFEN-6 1 43484U 18048A 25350.98733800 .00000431 00000+0 68710-4 0 9990 2 43484 97.8032 55.1117 0013056 51.0289 309.2083 14.76573645406502 GAOFEN-11 01 1 43585U 18063A 25351.01662647 .00008107 00000+0 14972-3 0 9992 2 43585 97.1564 53.9150 0004104 292.4679 67.6138 15.49336405412086 ICESAT-2 1 43613U 18070A 25350.99260065 .00010352 00000+0 37605-3 0 9999 2 43613 92.0051 241.8848 0002616 130.7056 229.4421 15.28261577404633 HYSIS 1 43719U 18096A 25350.97469100 .00000824 00000+0 11955-3 0 9996 2 43719 98.0098 53.9318 0001216 51.8109 308.3211 14.78657388380492 KAZSTSAT 1 43783U 18099AB 25350.67228609 .00000726 00000+0 63942-4 0 9999 2 43783 97.4545 25.6885 0005915 312.8937 47.1790 14.99360705383958 SAUDISAT 5A 1 43831U 18102A 25350.98843244 .00005369 00000+0 21307-3 0 9996 2 43831 97.3355 51.0978 0011596 63.2733 296.9691 15.25710594387873 SAUDISAT 5B 1 43833U 18102C 25350.97794122 .00004900 00000+0 19264-3 0 9996 2 43833 97.3449 53.8336 0012312 65.3743 294.8777 15.26060765387981 GAOFEN-10R 1 44622U 19066A 25350.97703299 .00001418 00000+0 18195-3 0 9991 2 44622 98.0282 298.4998 0007597 29.6540 330.5102 14.82806687335377 CARTOSAT-3 1 44804U 19081A 25350.97757124 .00003146 00000+0 15246-3 0 9990 2 44804 97.4584 50.5079 0013988 69.7943 290.4794 15.19186579335808 GAOFEN-12 01 1 44819U 19082A 25351.00061223 .00000453 00000+0 65558-4 0 9990 2 44819 97.8125 357.1698 0001566 210.5027 149.6095 14.80662456327136 CSG-1 1 44873U 19092A 25350.97550486 .00000506 00000+0 70141-4 0 9993 2 44873 97.8803 172.2358 0001492 87.1132 273.0252 14.82146118324487 NEMO-HD 1 46277U 20061F 25350.98182573 .00009207 00000+0 22963-3 0 9995 2 46277 97.2214 50.0261 0001604 53.3892 306.7502 15.40417407293895 SENTINEL-6A 1 46984U 20086A 25350.85626451 -.00000040 00000+0 91326-4 0 9998 2 46984 66.0390 153.7577 0007710 269.2591 90.7541 12.80930770236971 GAOFEN-12 02 1 48079U 21026A 25350.99843884 .00000455 00000+0 66080-4 0 9994 2 48079 97.9852 344.9843 0003594 92.5824 267.5800 14.80680373254803 PLEIADES NEO 3 1 48268U 21034A 25350.98301963 .00001282 00000+0 16953-3 0 9991 2 48268 97.8947 63.3632 0001334 90.6016 269.5350 14.81674399250672 PLEIADES NEO 4 1 49070U 21073E 25350.81417861 .00000085 00000+0 17376-4 0 9994 2 49070 97.8946 63.1925 0001248 98.3982 261.7372 14.81671846234367 LANDSAT 9 1 49260U 21088A 25350.94829941 .00000386 00000+0 95743-4 0 9999 2 49260 98.2091 58.9983 0001128 90.0797 270.0531 14.57102344224465 CSG-2 1 51444U 22008A 25351.00926088 .00000688 00000+0 92983-4 0 9995 2 51444 97.8803 172.2675 0001458 84.5978 275.5402 14.82149432209604 GAOFEN-12 03 1 52912U 22069A 25350.96464300 .00000453 00000+0 67251-4 0 9991 2 52912 97.8485 238.2157 0002104 55.4486 304.6924 14.79618094187664 SWOT 1 54754U 22173A 25350.99427447 .00000088 00000+0 61257-4 0 9991 2 54754 77.6107 281.2465 0000370 101.8255 258.2939 14.00167504153651 GAOFEN-12 04 1 57654U 23123A 25351.00013878 .00001184 00000+0 16444-3 0 9996 2 57654 97.9124 266.6926 0001267 74.8562 285.2790 14.79712677125682 PARS 1 1 59065U 24039Q 25350.95406429 .00010111 00000+0 24608-3 0 9993 2 59065 97.4631 321.9766 0012319 59.5814 300.6648 15.41071052100531 RESURS-P 4 1 59371U 24061A 25351.01811551 .00003296 00000+0 10874-3 0 9998 2 59371 97.2546 297.2602 0001203 55.8338 304.3018 15.32119975 95866 LEGION 1 1 59625U 24081A 25350.95483555 .00004338 00000+0 22598-3 0 9997 2 59625 97.5215 65.5575 0003738 298.8239 61.2619 15.16522729 89915 LEGION 2 1 59626U 24081B 25350.92184725 .00003799 00000+0 19822-3 0 9998 2 59626 97.5218 65.6123 0005624 275.7057 84.3535 15.16534922 89918 ALOS-4 (DAICHI-4) 1 60182U 24123A 25350.95561240 .00001827 00000+0 25138-3 0 9995 2 60182 97.9225 85.7427 0001399 99.1223 261.0147 14.79477844 78937 LEGION 3 1 60452U 24146A 25350.90798965 .00004268 00000+0 23265-3 0 9992 2 60452 45.0023 287.7861 0015359 221.2040 138.7680 15.15807517 74369 LEGION 4 1 60453U 24146B 25350.77662265 .00004049 00000+0 22143-3 0 9992 2 60453 45.0400 20.2543 0009120 331.9551 28.0836 15.15869065 73191 SENTINEL-2C 1 60989U 24157A 25350.93488004 .00000124 00000+0 64026-4 0 9990 2 60989 98.5680 63.3570 0001227 97.0096 263.1227 14.30819214 66926 IONOSFERA-M 1 1 61735U 24199A 25350.97703404 .00000055 00000+0 44174-4 0 9999 2 61735 98.7402 220.7927 0000757 15.8637 344.2565 14.22714978101794 IONOSFERA-M 2 1 61736U 24199B 25350.94134672 .00000051 00000+0 42673-4 0 9990 2 61736 98.7407 220.6697 0001740 104.9292 255.2078 14.22717101104911 BIOMASS 1 63772U 25090A 25350.98129697 .00001259 00000+0 23042-3 0 9997 2 63772 98.0700 175.9291 0001121 81.6698 278.4634 14.67537090 33965 GOSAT-GW (IBUKI GW) 1 64694U 25141A 25350.94155140 .00000887 00000+0 16469-3 0 9997 2 64694 98.0431 286.3782 0001436 83.8839 276.2529 14.67561492 25112 IONOSFERA-M 3 1 64876U 25155A 25350.93647090 .00000068 00000+0 50619-4 0 9990 2 64876 98.5788 312.6839 0002128 53.1654 306.9719 14.21442120 20511 IONOSFERA-M 4 1 64877U 25155B 25350.97153378 .00000058 00000+0 45888-4 0 9997 2 64877 98.5786 312.6375 0001506 59.1689 300.9637 14.21443236 20510 MICROCARB 1 64899U 25156A 25350.93295470 .00000629 00000+0 10783-3 0 9997 2 64899 98.0023 66.2111 0017391 132.0494 228.2197 14.72064020 21157 CO3D 3 1 64900U 25156B 25347.69902622 .00003358 00000+0 15818-3 0 9999 2 64900 97.4344 64.0523 0001384 93.9049 266.2345 15.20200330 21357 CO3D 4 1 64901U 25156C 25350.99033655 .00004936 00000+0 23095-3 0 9997 2 64901 97.4346 67.2968 0001070 181.8559 178.2672 15.20205710 21850 CO3D 2 1 64902U 25156D 25346.87600341 .00002342 00000+0 10503-3 0 9991 2 64902 97.4215 63.2016 0020386 351.3096 8.7784 15.22031437 21224 CO3D 1 1 64903U 25156E 25350.89131986 .00000779 00000+0 39613-4 0 9999 2 64903 97.4238 67.1202 0007595 45.4460 314.7394 15.19747979 21838 SENTINEL-6B 1 66514U 25264A 25346.25094248 -.00000017 00000+0 18864-3 0 9993 2 66514 66.0385 163.4531 0007847 270.1745 89.8371 12.81479576 3220